Location: Johnson City
(36.3130°N, 82.3540°W)
Time: 03:52:30
(UTC-05:00)

N. Korean satellite - Pass Details

Date: 06 December 2021
Orbit: 447 x 491 km, 97.3° (Epoch: 22 January)

Event Time Altitude Azimuth Distance (km) Brightness Sun altitude
Rises 05:11:31 0° 23° (NNE) 2,452 10.3 -26.6°
Reaches altitude 10° 05:13:42 10° 34° (NE) 1,575 9.4 -26.2°
Maximum altitude 05:16:43 30° 97° (E) 822 8.3 -25.6°
Drops below altitude 10° 05:19:44 10° 161° (SSE) 1,568 9.5 -25.0°
Sets 05:21:54 0° 172° (S) 2,439 10.4 -24.5°
